Flag for Australia Weather past 2 weeks in Cairns, Queensland, Australia

Now
77 °F

Partly sunny.


Feels Like: 79 °F
Forecast: 64 / 81 °F
Wind: 9 mph from Southeast

Location: Cairns Airport

Current Time: Jul 31, 2014 at 12:56:50 PM

Latest Report: Jul 31, 2014 at 12:00 PM


Visibility: N/A

Pressure: 30.04 "Hg

Humidity: 61%

Dew point: 63 °F

Location of CairnsLocation

Historic Weather in Cairns — Graph

°F

Cairns temperature yesterday

Maximum temperature yesterday: 79 °F (at 1:30 PM)
Minimum temperature yesterday: 64 °F (at 5:00 AM)
Average temperature yesterday: 72 °F

Past Weeks' High & Low Weather Summary

 TemperatureHumidityPressure
High82 °F (Jul 17, 12:00 PM)100% (Jul 18, 1:00 AM)30.18 "Hg (Jul 18, 1:00 AM)
Low52 °F (Jul 19, 3:00 AM)24% (Jul 18, 2:00 PM)29.95 "Hg (Jul 23, 3:00 PM)
Average70 °F71%30.07 "Hg
* Reported Jul 16 11:00 AM — Jul 31 11:30 AM, Cairns, Weather by CustomWeather, © 2014

Note: Actual official high and low records may vary slightly from our data, if they occured in-between our weather recording intervals... More about our weather records

Advertising

Cairns weather history for previous 24 hours

 ConditionsComfort  
Time TempWeatherWind HumidityBarometerVisibility
11:30 AM
Jul 31
79 °FPartly sunny.8 mph58%30.04 "HgN/A
11:00 AM77 °FPartly sunny.12 mph61%30.07 "HgN/A
10:30 AM77 °FPartly sunny.10 mph61%30.07 "HgN/A
10:00 AM77 °FPartly sunny.9 mph61%30.07 "HgN/A
9:30 AM75 °FPartly sunny.10 mph65%30.07 "HgN/A
9:00 AM75 °FPartly sunny.9 mph65%30.07 "HgN/A
8:30 AM73 °FPartly sunny.9 mph69%30.07 "HgN/A
8:00 AM72 °FPartly sunny.9 mph73%30.07 "HgN/A
7:00 AM66 °FPartly sunny.10 mph88%30.07 "HgN/A
6:30 AM66 °FPassing clouds.9 mph88%30.04 "HgN/A
6:00 AM68 °FPassing clouds.6 mph83%30.04 "HgN/A
5:30 AM68 °FPassing clouds.9 mph83%30.04 "HgN/A
5:00 AM68 °FPassing clouds.8 mph83%30.04 "HgN/A
4:30 AM68 °FPassing clouds.8 mph78%30.04 "HgN/A
4:00 AM70 °FPassing clouds.9 mph78%30.04 "HgN/A
3:30 AM70 °FPassing clouds.13 mph78%30.04 "HgN/A
3:00 AM68 °FPassing clouds.14 mph83%30.04 "HgN/A
2:30 AM68 °FMostly cloudy.14 mph83%30.04 "HgN/A
2:00 AM70 °FPassing clouds.12 mph78%30.04 "HgN/A
1:00 AM72 °FPassing clouds.8 mph73%30.07 "HgN/A
12:30 AM70 °FPassing clouds.9 mph73%30.07 "HgN/A
12:00 AM72 °FPassing clouds.9 mph73%30.07 "HgN/A
11:30 PM
Jul 30
68 °FPassing clouds.9 mph83%30.07 "HgN/A
11:00 PM70 °FPassing clouds.12 mph78%30.07 "HgN/A
10:00 PM72 °FPassing clouds.8 mph73%30.07 "HgN/A
9:30 PM72 °FPassing clouds.13 mph73%30.09 "HgN/A
9:00 PM70 °FPassing clouds.10 mph78%30.09 "HgN/A
8:30 PM70 °FPassing clouds.12 mph73%30.07 "HgN/A
8:00 PM70 °FPassing clouds.14 mph78%30.07 "HgN/A
7:30 PM70 °FPassing clouds.12 mph78%30.07 "HgN/A
7:00 PM72 °FPassing clouds.8 mph69%30.04 "HgN/A
6:30 PM72 °FPassing clouds.7 mph69%30.04 "HgN/A
6:00 PM72 °FPartly sunny.7 mph69%30.04 "HgN/A
5:30 PM75 °FPartly sunny.10 mph65%30.04 "HgN/A
5:00 PM75 °FPartly sunny.10 mph61%30.04 "HgN/A
4:30 PM77 °FPartly sunny.8 mph61%30.01 "HgN/A
4:00 PM77 °FPartly sunny.10 mph57%30.01 "HgN/A
3:30 PM79 °FPartly sunny.12 mph51%30.01 "HgN/A
3:00 PM79 °FPartly sunny.16 mph51%30.01 "HgN/A
2:30 PM79 °FPartly sunny.16 mph54%30.04 "HgN/A
2:00 PM79 °FPartly sunny.14 mph54%30.04 "HgN/A
1:30 PM79 °FPartly sunny.12 mph54%30.04 "HgN/A
1:00 PM77 °FWarm.15 mph57%30.07 "HgN/A
12:30 PM77 °FPartly sunny.15 mph54%30.07 "HgN/A
12:00 PM75 °FPartly sunny.10 mph65%30.09 "HgN/A
Weather by CustomWeather, © 2014

See weather overviewHow to use our weather pages